Location: Mentone
(34.5413°N, 85.5351°W)
Time: 16:38:12
(UTC-06:00)

Vanguard 1 - Visible Passes

Search period start: 20 November 2017 00:00
Search period end: 30 November 2017 00:00
Orbit: 650 x 3834 km, 34.2° (Epoch: 17 November)

Date Brightness Start Highest point End Pass type
(mag) Time Alt. Az. Time Alt. Az. Time Alt. Az.
20 Nov 9.1 17:59:33 10° W 18:04:00 88° S 18:05:51 36° E visible
21 Nov 9.1 18:20:36 10° W 18:25:00 81° S 18:25:47 61° ESE visible
22 Nov 9.4 18:41:37 10° W 18:45:44 67° SW 18:45:44 67° SW visible
23 Nov 10.4 19:02:40 10° W 19:05:43 40° WSW 19:05:43 40° WSW visible
24 Nov 9.2 17:03:07 10° W 17:08:08 87° S 17:12:34 10° E visible
24 Nov 11.3 19:23:47 10° W 19:25:43 24° WSW 19:25:43 24° WSW visible
25 Nov 9.2 17:24:17 10° W 17:29:07 79° S 17:33:02 13° ESE visible
25 Nov 12.1 19:45:03 10° W 19:45:46 14° WSW 19:45:46 14° WSW visible
26 Nov 9.4 17:45:25 10° W 17:50:05 64° SSW 17:53:07 20° ESE visible
27 Nov 9.9 18:06:34 10° W 18:11:00 48° SSW 18:13:15 25° SE visible
28 Nov 10.5 18:27:48 10° W 18:31:53 33° SSW 18:33:27 26° SSE visible
29 Nov 11.1 18:49:15 10° W 18:52:45 22° SSW 18:53:42 21° S visible
